Location: Santa Clara
(37.3540°N, 121.9540°W)
Time: 18:41:34
(UTC-07:00)

BlueWalker 3 - Visible Passes

Search period start: 21 May 2024 00:00
Search period end: 31 May 2024 00:00
Orbit: 482 x 494 km, 53.2° (Epoch: 20 May)

Date Brightness Start Highest point End Pass type
(mag) Time Alt. Az. Time Alt. Az. Time Alt. Az.
27 May 4.1 05:09:35 10° S 05:12:14 19° SE 05:14:55 10° E visible
28 May 4.2 04:44:20 10° S 04:46:50 17° SE 04:49:22 10° E visible
29 May 4.2 04:19:07 10° SSE 04:21:25 16° SE 04:23:46 10° E visible
30 May 4.1 03:54:47 13° SSE 03:55:58 15° SE 03:58:08 10° E visible
